Location: Waco, TX
(31.5481°N, 97.1672°W)
Time: 00:24:42
(UTC-06:00)

Hubble Space Telescope - Visible Passes

Search period start: 17 December 2017 00:00
Search period end: 27 December 2017 00:00
Orbit: 537 x 541 km, 28.5° (Epoch: 16 December)

Date Brightness Start Highest point End Pass type
(mag) Time Alt. Az. Time Alt. Az. Time Alt. Az.
17 Dec 2.8 18:50:40 10° WSW 18:54:02 24° SSW 18:57:24 10° SE visible
18 Dec 3.2 18:40:40 10° WSW 18:43:43 20° SSW 18:46:46 10° SSE visible
19 Dec 3.5 18:30:49 10° WSW 18:33:24 16° SSW 18:35:59 10° SSE visible
20 Dec 3.7 18:21:12 10° SW 18:23:04 13° SSW 18:24:56 10° S visible
